This is the latest recevied weather packets stored in our database for station/object W4UWO. If no packets are shown the sender has not sent any weather packets the latest 10 day(s).
| Time | Temp. | Humidity | Pressure | Rain* | Wind** | Luminosity | Snow |
|---|---|---|---|---|---|---|---|
| 1787928141 | 27.78° C | 64% | 1020 hPa | 0 mm | - | 523 W/m² | - |
| 1787927841 | 27.78° C | 64% | 1020 hPa | 0 mm | - | 507 W/m² | - |
| 1787927535 | 27.22° C | 65% | 1019.9 hPa | 0 mm | - | 492 W/m² | - |
| 1787927230 | 27.22° C | 65% | 1020.2 hPa | 0 mm | - | 483 W/m² | - |
| 1787926926 | 27.22° C | 64% | 1019.9 hPa | 0 mm | - | 449 W/m² | - |
| 1787926620 | 27.22° C | 65% | 1019.9 hPa | 0 mm | - | 446 W/m² | - |
| 1787926318 | 26.67° C | 65% | 1019.8 hPa | 0 mm | - | 432 W/m² | - |
| 1787926014 | 26.67° C | 64% | 1019.7 hPa | 0 mm | - | 418 W/m² | - |
| 1787925713 | 27.22° C | 66% | 1019.8 hPa | 0 mm | - | 402 W/m² | - |
| 1787925408 | 26.11° C | 69% | 1019.8 hPa | 0 mm | - | 364 W/m² | - |
| 1787925107 | 25.56° C | 71% | 1019.7 hPa | 0 mm | - | 361 W/m² | - |
| 1787924806 | 25.56° C | 72% | 1019.8 hPa | 0 mm | - | 331 W/m² | - |
| 1787924501 | 25° C | 72% | 1019.6 hPa | 0 mm | - | 319 W/m² | - |
| 1787924197 | 25.56° C | 71% | 1019.8 hPa | 0 mm | - | 309 W/m² | - |
| 1787923892 | 25° C | 72% | 1019.7 hPa | 0 mm | - | 100 W/m² | - |
| 1787923592 | 24.44° C | 73% | 1019.7 hPa | 0 mm | - | 106 W/m² | - |
| 1787923287 | 23.89° C | 75% | 1019.7 hPa | 0 mm | - | 119 W/m² | - |
| 1787922982 | 23.89° C | 76% | 1019.7 hPa | 0 mm | - | 188 W/m² | - |
| 1787922682 | 23.89° C | 77% | 1019.5 hPa | 0 mm | - | 181 W/m² | - |
| 1787922381 | 23.89° C | 78% | 1019.7 hPa | 0 mm | - | 101 W/m² | - |
| 1787922079 | 23.89° C | 77% | 1019.6 hPa | 0 mm | - | 88 W/m² | - |
| 1787921773 | 23.89° C | 77% | 1019.8 hPa | 0 mm | - | 121 W/m² | - |
| 1787921473 | 23.33° C | 78% | 1019.5 hPa | 0 mm | - | 91 W/m² | - |
| 1787921167 | 23.33° C | 79% | 1019.7 hPa | 0 mm | - | 105 W/m² | - |
| 1787920863 | 22.78° C | 81% | 1019.6 hPa | 0 mm | - | 111 W/m² | - |
* Rain latest hour (hover to see other rain measurements)
** Current wind speed in m/s (hover to see current wind gust speed)